timestamp,wind_dir_avg,wind_spd_avg,wind_spd_max_dir,wind_spd_gust,battery_voltage,lat,long
2023-10-28 00:04:01+00:00,127.0,6.4,129.0,7.74,12.41,47.59359,-54.27349
2023-10-28 00:14:00+00:00,125.0,5.37,123.0,6.84,12.41,47.59359,-54.27349
2023-10-28 00:24:00+00:00,131.0,5.02,145.0,5.85,12.41,47.59359,-54.27349
2023-10-28 00:34:00+00:00,139.0,5.51,138.0,6.33,12.41,47.59359,-54.27349
2023-10-28 00:44:00+00:00,137.0,4.97,141.0,6.34,12.41,47.59359,-54.27349
2023-10-28 00:54:00+00:00,141.0,5.39,141.0,6.18,12.41,47.59359,-54.27349
2023-10-28 01:04:00+00:00,142.0,4.93,139.0,5.43,12.41,47.59359,-54.27349
2023-10-28 01:14:01+00:00,152.0,5.02,148.0,5.64,12.41,47.59359,-54.27349
2023-10-28 01:24:01+00:00,159.0,6.37,159.0,8.08,12.41,47.59359,-54.27349
2023-10-28 01:34:01+00:00,148.0,6.24,158.0,8.08,12.41,47.59359,-54.27349
2023-10-28 01:44:01+00:00,156.0,6.31,158.0,7.46,12.41,47.59359,-54.27349
2023-10-28 01:54:01+00:00,144.0,6.42,141.0,8.24,12.41,47.59359,-54.27349
2023-10-28 02:04:01+00:00,154.0,7.18,149.0,8.11,12.41,47.59359,-54.27349
2023-10-28 02:14:00+00:00,153.0,7.24,162.0,8.49,12.41,47.59359,-54.27349
2023-10-28 02:24:00+00:00,158.0,7.25,162.0,8.27,12.41,47.59359,-54.27349
2023-10-28 02:34:00+00:00,152.0,7.48,149.0,8.43,12.41,47.59359,-54.27349
2023-10-28 02:44:00+00:00,157.0,6.34,159.0,7.42,12.41,47.59359,-54.27349
2023-10-28 02:54:00+00:00,160.0,7.5,162.0,8.27,12.41,47.59359,-54.27349
2023-10-28 03:04:00+00:00,159.0,7.98,159.0,9.43,12.41,47.59359,-54.27349
2023-10-28 03:14:01+00:00,152.0,7.14,155.0,8.26,12.41,47.59359,-54.27349
2023-10-28 03:24:01+00:00,148.0,7.5,148.0,8.59,12.41,47.59359,-54.27349
2023-10-28 03:34:01+00:00,155.0,7.86,153.0,8.61,12.41,47.59359,-54.27349
2023-10-28 03:44:01+00:00,151.0,7.8,149.0,8.75,12.41,47.59359,-54.27349
2023-10-28 03:54:01+00:00,149.0,7.52,148.0,8.53,12.41,47.59359,-54.27349
2023-10-28 04:04:01+00:00,149.0,8.36,154.0,9.18,12.41,47.59359,-54.27349
2023-10-28 04:14:01+00:00,155.0,8.51,154.0,9.52,12.33,47.59359,-54.27349
2023-10-28 04:24:01+00:00,151.0,7.69,156.0,8.63,12.33,47.59359,-54.27349
2023-10-28 04:34:01+00:00,158.0,7.53,158.0,8.94,12.33,47.59359,-54.27349
2023-10-28 04:44:01+00:00,150.0,7.41,152.0,8.07,12.33,47.59359,-54.27349
2023-10-28 04:54:01+00:00,153.0,7.22,160.0,8.38,12.33,47.59359,-54.27349
2023-10-28 05:04:01+00:00,155.0,7.49,154.0,8.48,12.33,47.59359,-54.27349
2023-10-28 05:14:00+00:00,160.0,7.07,161.0,7.78,12.33,47.59359,-54.27349
2023-10-28 05:24:00+00:00,158.0,7.81,162.0,8.74,12.33,47.59359,-54.27349
2023-10-28 05:34:00+00:00,149.0,7.42,151.0,8.9,12.33,47.59359,-54.27349
2023-10-28 05:44:00+00:00,153.0,7.62,151.0,9.2,12.33,47.59359,-54.27349
2023-10-28 05:54:00+00:00,156.0,8.75,157.0,10.8,12.33,47.59359,-54.27349
2023-10-28 06:04:00+00:00,156.0,9.64,160.0,10.6,12.33,47.59359,-54.27349
2023-10-28 06:14:00+00:00,158.0,10.51,157.0,11.52,12.33,47.59359,-54.27349
2023-10-28 06:24:00+00:00,159.0,10.68,160.0,11.71,12.33,47.59359,-54.27349
2023-10-28 06:34:00+00:00,153.0,10.76,156.0,11.91,12.33,47.59359,-54.27349
2023-10-28 06:44:00+00:00,160.0,9.74,155.0,11.46,12.33,47.59359,-54.27349
2023-10-28 06:54:00+00:00,157.0,9.74,168.0,11.61,12.33,47.59359,-54.27349
2023-10-28 07:04:00+00:00,160.0,11.91,161.0,13.57,12.33,47.59359,-54.27349
2023-10-28 07:14:00+00:00,157.0,11.45,158.0,12.68,12.25,47.59359,-54.27349
2023-10-28 07:24:00+00:00,160.0,9.81,158.0,11.17,12.25,47.59359,-54.27349
2023-10-28 07:34:00+00:00,154.0,8.48,157.0,10.17,12.25,47.59359,-54.27349
2023-10-28 07:44:00+00:00,153.0,8.49,156.0,9.6,12.25,47.59359,-54.27349
2023-10-28 07:54:00+00:00,156.0,7.43,157.0,8.44,12.25,47.59359,-54.27349
2023-10-28 08:04:00+00:00,147.0,7.63,150.0,8.62,12.25,47.59359,-54.27349
2023-10-28 08:14:01+00:00,149.0,8.24,146.0,9.08,12.25,47.59359,-54.27349
2023-10-28 08:24:01+00:00,150.0,8.13,146.0,9.26,12.25,47.59359,-54.27349
2023-10-28 08:34:01+00:00,151.0,8.04,154.0,9.29,12.25,47.59359,-54.27349
2023-10-28 08:44:01+00:00,149.0,8.87,156.0,10.56,12.25,47.59359,-54.27349
2023-10-28 08:54:01+00:00,157.0,7.79,162.0,8.88,12.25,47.59359,-54.27349
2023-10-28 09:04:01+00:00,153.0,7.73,154.0,9.22,12.25,47.59359,-54.27349
2023-10-28 09:14:00+00:00,156.0,6.35,149.0,8.26,12.25,47.59359,-54.27349
2023-10-28 09:24:00+00:00,174.0,6.97,177.0,7.76,12.25,47.59359,-54.27349
2023-10-28 09:34:00+00:00,166.0,6.3,158.0,6.98,12.25,47.59359,-54.27349
2023-10-28 09:44:00+00:00,166.0,6.61,166.0,7.18,12.25,47.59359,-54.27349
2023-10-28 09:54:00+00:00,171.0,6.2,165.0,7.01,12.25,47.59359,-54.27349
2023-10-28 10:04:00+00:00,163.0,6.02,151.0,6.95,12.25,47.59359,-54.27349
2023-10-28 10:14:01+00:00,175.0,5.3,178.0,6.05,12.25,47.59359,-54.27349
2023-10-28 10:24:01+00:00,175.0,4.7,175.0,5.44,12.25,47.59359,-54.27349
2023-10-28 10:34:01+00:00,170.0,5.52,163.0,6.13,12.25,47.59359,-54.27349
2023-10-28 10:44:01+00:00,171.0,4.92,170.0,5.31,12.25,47.59359,-54.27349
2023-10-28 10:54:01+00:00,172.0,5.1,154.0,5.72,12.25,47.59359,-54.27349
2023-10-28 11:04:01+00:00,166.0,4.58,172.0,5.23,12.25,47.59359,-54.27349
2023-10-28 11:14:00+00:00,178.0,5.48,175.0,5.85,12.25,47.59359,-54.27349
2023-10-28 11:24:00+00:00,177.0,6.1,182.0,7.01,12.25,47.59359,-54.27349
2023-10-28 11:34:00+00:00,177.0,6.51,173.0,7.19,12.25,47.59359,-54.27349
2023-10-28 11:44:00+00:00,172.0,5.59,178.0,6.07,12.25,47.59359,-54.27349
2023-10-28 11:54:00+00:00,174.0,4.65,174.0,5.05,12.25,47.59359,-54.27349
2023-10-28 12:04:00+00:00,178.0,5.85,184.0,7.1,12.25,47.59359,-54.27349
2023-10-28 12:14:00+00:00,181.0,5.63,183.0,6.6,12.25,47.59359,-54.27349
2023-10-28 12:24:00+00:00,181.0,7.01,187.0,7.83,12.25,47.59359,-54.27349
2023-10-28 12:34:00+00:00,191.0,6.6,188.0,7.28,12.25,47.59359,-54.27349
2023-10-28 12:44:00+00:00,173.0,6.72,174.0,7.44,12.25,47.59359,-54.27349
2023-10-28 12:54:00+00:00,220.0,7.87,219.0,8.61,12.25,47.59359,-54.27349
2023-10-28 13:04:00+00:00,199.0,8.02,215.0,9.81,12.25,47.59359,-54.27349
2023-10-28 13:14:00+00:00,211.0,9.34,213.0,10.43,12.49,47.59359,-54.27349
2023-10-28 13:24:00+00:00,205.0,7.67,217.0,9.41,12.49,47.59359,-54.27349
2023-10-28 13:34:00+00:00,205.0,7.79,209.0,8.58,12.49,47.59359,-54.27349
2023-10-28 13:44:00+00:00,210.0,8.5,215.0,9.16,12.49,47.59359,-54.27349
2023-10-28 13:54:00+00:00,210.0,8.94,213.0,9.47,12.49,47.59359,-54.27349
2023-10-28 14:04:00+00:00,315.0,0.01,203.0,0.0,12.49,47.59359,-54.27349
2023-10-28 14:14:00+00:00,315.0,0.01,203.0,0.0,12.57,47.59359,-54.27349
2023-10-28 14:24:00+00:00,315.0,0.01,203.0,0.0,12.57,47.59359,-54.27349
2023-10-28 14:34:00+00:00,315.0,0.01,203.0,0.0,12.57,47.59359,-54.27349
2023-10-28 14:44:00+00:00,315.0,0.01,203.0,0.0,12.57,47.59359,-54.27349
2023-10-28 14:54:00+00:00,315.0,0.01,203.0,0.0,12.57,47.59359,-54.27349
2023-10-28 15:04:00+00:00,315.0,0.01,203.0,0.0,12.57,47.59359,-54.27349
2023-10-28 15:14:01+00:00,315.0,0.01,203.0,0.0,12.81,47.59359,-54.27349
2023-10-28 15:24:01+00:00,315.0,0.01,203.0,0.0,12.81,47.59359,-54.27349
2023-10-28 15:34:01+00:00,315.0,0.01,203.0,0.0,12.81,47.59359,-54.27349
2023-10-28 15:44:01+00:00,315.0,0.01,223.0,0.0,12.81,47.59359,-54.27349
2023-10-28 15:54:01+00:00,315.0,0.01,217.0,0.0,12.81,47.59359,-54.27349
2023-10-28 16:04:01+00:00,315.0,0.01,216.0,0.0,12.81,47.59359,-54.27349
2023-10-28 16:14:00+00:00,315.0,0.01,216.0,0.0,13.13,47.59359,-54.27349
2023-10-28 16:24:00+00:00,315.0,0.01,229.0,0.0,13.13,47.59359,-54.27349
2023-10-28 16:34:00+00:00,315.0,0.01,229.0,0.0,13.13,47.59359,-54.27349
2023-10-28 16:44:00+00:00,213.0,9.25,213.0,9.74,13.13,47.59359,-54.27349
2023-10-28 16:54:00+00:00,216.0,8.98,213.0,9.77,13.13,47.59359,-54.27349
2023-10-28 17:04:00+00:00,219.0,8.61,216.0,9.31,13.13,47.59359,-54.27349
2023-10-28 17:14:00+00:00,215.0,8.84,215.0,9.18,13.13,47.59359,-54.27349
2023-10-28 17:24:00+00:00,222.0,8.12,222.0,8.29,13.13,47.59359,-54.27349
2023-10-28 17:34:00+00:00,315.0,0.01,216.0,0.0,13.13,47.59359,-54.27349
2023-10-28 17:44:00+00:00,214.0,9.24,215.0,9.51,13.13,47.59359,-54.27349
2023-10-28 17:54:00+00:00,214.0,8.88,212.0,9.16,13.13,47.59359,-54.27349
2023-10-28 18:04:00+00:00,215.0,9.07,215.0,9.21,13.13,47.59359,-54.27349
2023-10-28 18:14:01+00:00,315.0,0.01,215.0,0.0,13.05,47.59359,-54.27349
2023-10-28 18:24:01+00:00,315.0,0.01,215.0,0.0,13.05,47.59359,-54.27349
2023-10-28 18:34:01+00:00,315.0,0.01,215.0,0.0,13.05,47.59359,-54.27349
2023-10-28 18:44:01+00:00,315.0,0.01,214.0,0.0,13.05,47.59359,-54.27349
2023-10-28 18:54:01+00:00,212.0,10.29,213.0,11.27,13.05,47.59359,-54.27349
2023-10-28 19:04:01+00:00,213.0,9.79,211.0,10.47,13.05,47.59359,-54.27349
2023-10-28 19:14:01+00:00,213.0,9.65,210.0,11.29,12.81,47.59359,-54.27349
2023-10-28 19:24:01+00:00,214.0,9.49,210.0,10.63,12.81,47.59359,-54.27349
2023-10-28 19:34:01+00:00,215.0,9.71,210.0,10.9,12.81,47.59359,-54.27349
2023-10-28 19:44:01+00:00,217.0,9.0,217.0,10.52,12.81,47.59359,-54.27349
2023-10-28 19:54:01+00:00,214.0,11.03,217.0,13.0,12.81,47.59359,-54.27349
2023-10-28 20:04:01+00:00,215.0,10.2,232.0,12.81,12.81,47.59359,-54.27349
2023-10-28 20:14:00+00:00,216.0,9.46,219.0,10.69,12.57,47.59359,-54.27349
2023-10-28 20:24:00+00:00,216.0,9.94,217.0,11.25,12.57,47.59359,-54.27349
2023-10-28 20:34:00+00:00,214.0,10.8,225.0,14.95,12.57,47.59359,-54.27349
2023-10-28 20:44:00+00:00,216.0,10.42,224.0,12.29,12.57,47.59359,-54.27349
2023-10-28 20:54:00+00:00,214.0,11.83,228.0,15.26,12.57,47.59359,-54.27349
2023-10-28 21:04:00+00:00,216.0,11.1,227.0,14.2,12.57,47.59359,-54.27349
2023-10-28 21:14:01+00:00,211.0,10.31,210.0,11.09,12.49,47.59359,-54.27349
2023-10-28 21:24:01+00:00,212.0,10.26,212.0,11.43,12.49,47.59359,-54.27349
2023-10-28 21:34:01+00:00,214.0,10.13,213.0,11.2,12.49,47.59359,-54.27349
2023-10-28 21:44:01+00:00,215.0,10.34,221.0,12.65,12.49,47.59359,-54.27349
2023-10-28 21:54:01+00:00,218.0,8.76,213.0,10.19,12.49,47.59359,-54.27349
2023-10-28 22:04:01+00:00,223.0,8.19,230.0,10.14,12.49,47.59359,-54.27349
2023-10-28 22:14:01+00:00,222.0,9.13,234.0,12.78,12.41,47.59359,-54.27349
2023-10-28 22:24:01+00:00,220.0,8.54,216.0,9.47,12.41,47.59359,-54.27349
2023-10-28 22:34:01+00:00,215.0,9.42,215.0,11.44,12.41,47.59359,-54.27349
2023-10-28 22:44:01+00:00,214.0,9.97,212.0,11.58,12.41,47.59359,-54.27349
2023-10-28 22:54:01+00:00,213.0,9.73,223.0,10.55,12.41,47.59359,-54.27349
2023-10-28 23:04:01+00:00,214.0,9.69,211.0,10.56,12.41,47.59359,-54.27349
2023-10-28 23:14:00+00:00,214.0,9.52,212.0,10.81,12.41,47.59359,-54.27349
2023-10-28 23:24:00+00:00,211.0,10.75,211.0,12.27,12.41,47.59359,-54.27349
2023-10-28 23:34:00+00:00,228.0,8.06,228.0,9.79,12.41,47.59359,-54.27349
2023-10-28 23:44:00+00:00,221.0,8.23,220.0,9.08,12.41,47.59359,-54.27349
2023-10-28 23:54:00+00:00,222.0,8.61,223.0,9.5,12.41,47.59359,-54.27349
